Tracking 19634 objects as of 22-May-2019
HD Live streaming from Space Station
objects crossing your sky now

SL-6 R/B(2)

Track SL-6 R/B(2) now!


NORAD ID: 10089
Int'l Code: 1977-047D
Perigee: 2,936.4 km
Apogee: 37,662.5 km
Inclination: 66.7 °
Period: 722.4 minutes
Semi major axis: 26670 km
RCS: 4.9235 m2 (large)
Launch date: June 16, 1977
Source: Commonwealth of Independent States (former USSR) (CIS)
Launch site: PLESETSK MISSILE AND SPACE COMPLEX (PKMTR)

Note: This is a ROCKET BODY
aabbcc
Your satellite tracking list
Your tracking list is empty




NASA's NSSDC Master Catalog

Two Line Element Set (TLE):
1 10089U 77047D   19140.56312078 +.00000537 +00000-0 +00000-0 0  9995
2 10089 066.7253 285.0682 6510216 349.6408 001.4387 01.99322714208938
Source of the keplerian elements: AFSPC